Location: Unspecified
(0.0000°N, 0.0000°E)
Time: 09:44:53
(UTC+00:00)

MIDAS 4 DEB - Pass Details

Date: 18 November 2025
Orbit: 3271 x 3959 km, 95.8° (Epoch: 26 July)

Event Time Altitude Azimuth Distance (km) Brightness Sun altitude
Rises 21:28:14 0° 359° (N) 7,442 ? -51.2°
Enters shadow 21:28:38 - 359° (N) 7,350 ? -51.3°
Exits shadow 21:45:06 49° 320° (NW) 4,281 ? -54.7°
Maximum altitude 21:49:40 57° 282° (WNW) 4,117 ? -55.6°
Drops below altitude 10° 22:08:45 10° 207° (SSW) 7,024 ? -59.4°
Sets 22:13:38 0° 202° (SSW) 8,101 ? -60.3°
